EW8756 Weather Reports


time (UTC)temp
C
wind
direction
speed
KPH
gust
KPH
rain 1hr
cm
rain 24hr
cm
rain mn
cm
humidity
%
barometer
mb
20260507051600 11 208 6.4 16.1 0.00 0.00 0.00 82 1021.4
20260507050056 11 225 3.2 12.9 0.00 0.00 0.00 81 1021.4
20260507044614 11 218 6.4 16.1 0.00 0.00 0.00 81 1021.4
20260507043058 11 224 6.4 16.1 0.00 0.00 0.00 81 1021.3
20260507041602 12 258 9.7 19.3 0.00 0.00 0.00 80 1021.3
20260507034558 12 266 0.0 14.5 0.00 0.00 0.00 80 1021.1
20260507033053 12 246 4.8 9.7 0.00 0.00 0.00 79 1021.1
20260507031555 12 229 3.2 17.7 0.00 0.00 0.00 78 1020.8
20260507030054 12 238 8.0 17.7 0.00 0.00 0.00 77 1020.7
20260507024551 13 297 6.4 11.3 0.00 0.00 0.00 77 1020.7
20260507023050 13 229 3.2 8.0 0.00 0.00 0.00 76 1020.6
20260507021549 13 264 6.4 16.1 0.00 0.00 0.00 75 1020.5
20260507020100 13 208 3.2 16.1 0.00 0.00 0.00 75 1020.5
20260507014600 13 248 4.8 19.3 0.00 0.00 0.00 74 1020.5
20260507013048 13 265 14.5 24.1 0.00 0.00 0.00 73 1020.4
20260507011556 14 249 9.7 22.5 0.00 0.00 0.00 72 1020.5
20260507010047 15 231 11.3 24.1 0.00 0.00 0.00 71 1020.5
20260507004546 14 249 9.7 20.9 0.00 0.00 0.00 72 1020.6
20260507003046 13 237 11.3 24.1 0.00 0.00 0.00 73 1020.5
20260507001557 13 265 12.9 24.1 0.00 0.00 0.00 74 1020.5
20260507000046 14 260 16.1 25.7 0.00 0.00 0.00 72 1020.6
20260506234546 15 287 12.9 25.7 0.00 0.00 0.00 71 1020.6
20260506233044 15 218 4.8 12.9 0.00 0.00 0.00 71 1020.5
20260506231543 14 206 6.4 17.7 0.00 0.00 0.00 72 1020.6
20260506230047 15 248 8.0 22.5 0.00 0.00 0.00 72 1020.6
20260506224543 15 266 12.9 19.3 0.00 0.00 0.00 71 1020.7
20260506223041 14 226 6.4 24.1 0.00 0.00 0.00 72 1020.7
20260506221539 14 297 11.3 22.5 0.00 0.00 0.00 72 1020.7
20260506220042 14 225 12.9 24.1 0.00 0.00 0.00 71 1020.9
20260506214536 14 253 8.0 20.9 0.00 0.00 0.00 72 1020.9
20260506213035 14 228 4.8 17.7 0.00 0.00 0.00 74 1020.8
20260506211531 13 292 4.8 12.9 0.00 0.00 0.00 77 1021.0
20260506210030 13 226 6.4 19.3 0.00 0.00 0.00 77 1020.9
20260506204530 13 268 6.4 17.7 0.00 0.00 0.00 78 1020.9
20260506203033 13 262 6.4 22.5 0.00 0.00 0.00 79 1020.9
20260506201525 12 247 6.4 22.5 0.00 0.00 0.00 80 1020.8
20260506200025 12 220 6.4 16.1 0.00 0.00 0.00 81 1020.7
20260506194522 12 210 4.8 11.3 0.00 0.00 0.00 83 1020.7
20260506193018 12 164 3.2 16.1 0.00 0.00 0.00 84 1020.7
20260506191518 12 229 12.9 25.7 0.00 0.00 0.00 85 1020.8
20260506190021 12 242 8.0 12.9 0.00 0.00 0.00 86 1020.7
20260506184513 12 241 6.4 16.1 0.00 0.00 0.00 87 1020.8
20260506183013 11 239 6.4 16.1 0.00 0.00 0.00 87 1020.5
20260506181510 11 165 4.8 17.7 0.00 0.00 0.00 88 1020.5
20260506180009 11 205 12.9 25.7 0.00 0.00 0.00 88 1020.5
20260506174514 11 217 6.4 14.5 0.00 0.00 0.00 89 1020.5
20260506173007 11 249 9.7 19.3 0.00 0.00 0.00 90 1020.5
20260506171513 11 221 6.4 19.3 0.00 0.00 0.00 90 1020.5
20260506170004 10 246 4.8 16.1 0.00 0.00 0.00 91 1020.5
20260506164502 10 216 3.2 14.5 0.00 0.00 0.00 91 1020.3
20260506163002 10 197 3.2 8.0 0.00 0.00 0.00 91 1020.0
20260506161602 10 225 8.0 14.5 0.00 0.00 0.00 91 1020.1
20260506160104 10 247 6.4 12.9 0.00 0.00 0.00 92 1020.2
20260506154558 10 244 8.0 16.1 0.00 0.00 0.00 92 1020.0
20260506153119 10 231 6.4 11.3 0.00 0.00 0.00 92 1020.0
20260506151553 10 259 3.2 9.7 0.00 0.00 0.00 91 1020.1
20260506150052 10 276 3.2 14.5 0.00 0.00 0.00 92 1020.2
20260506144549 10 272 1.6 11.3 0.00 0.00 0.00 92 1019.7
20260506143049 10 145 4.8 12.9 0.00 0.00 0.00 92 1019.6
20260506141549 10 214 3.2 9.7 0.00 0.00 0.00 92 1019.7
20260506140046 10 192 4.8 12.9 0.00 0.00 0.00 92 1019.5
20260506134543 10 194 4.8 12.9 0.00 0.00 0.00 92 1019.7
20260506133046 10 250 4.8 12.9 0.00 0.00 0.00 92 1019.5
20260506131539 10 185 6.4 12.9 0.00 0.00 0.00 92 1019.3
20260506130039 10 241 3.2 12.9 0.00 0.00 0.00 92 1019.3
20260506124534 10 225 3.2 12.9 0.00 0.00 0.00 93 1019.2
20260506123033 10 221 3.2 11.3 0.00 0.00 0.00 93 1019.1
20260506121531 10 226 3.2 6.4 0.00 0.00 0.00 93 1019.0
20260506120031 10 212 0.0 4.8 0.00 0.00 0.00 93 1018.8
20260506114529 10 143 0.0 6.4 0.00 0.00 0.00 93 1018.8
20260506113028 10 198 1.6 6.4 0.00 0.00 0.00 92 1018.9
20260506111530 10 220 3.2 11.3 0.00 0.00 0.00 92 1018.9
20260506110024 11 258 3.2 8.0 0.00 0.00 0.00 91 1018.8
20260506104522 11 189 1.6 9.7 0.00 0.00 0.00 90 1018.6
20260506103021 11 212 1.6 11.3 0.00 0.00 0.00 90 1018.4
20260506101518 11 236 4.8 14.5 0.00 0.00 0.00 90 1018.3
20260506100016 11 243 3.2 14.5 0.00 0.00 0.00 90 1018.0
20260506094517 11 208 3.2 6.4 0.00 0.00 0.00 90 1017.9
20260506093015 11 211 3.2 9.7 0.00 0.00 0.00 91 1017.8
20260506091514 11 218 6.4 11.3 0.00 0.00 0.00 90 1017.9
20260506090144 11 237 3.2 11.3 0.00 0.00 0.00 91 1017.8
20260506083015 11 227 0.0 3.2 0.00 0.00 0.00 91 1017.8
20260506081508 11 227 0.0 3.2 0.00 0.00 0.00 90 1017.7
20260506073004 11 227 0.0 1.6 0.00 0.00 0.00 89 1017.4
20260506071600 11 251 0.0 4.8 0.00 0.00 0.00 89 1017.3
20260506061553 12 227 1.6 4.8 0.00 0.00 0.00 87 1016.7